Wind_Speed
4 3 7 12 9 6 4 1 2 4 5 2 6 7 9 10 6 6 7 9 10 10 10 20 17 12 6 1 3 6 11 15 19 22 24 23 20 21 27 29 26 25 28 28
4 7 14 9 7 8 4 2 4 6 3 2 5 11 9 9 7 9 10 13 12 8 8 12 18 13 9 4 2 4 7 10 14 17 19 18 22 23 25 28 31 26 27 27
7 8 5 7 7 6 4 4 4 7 3 3 5 10 6 5 4 6 7 17 14 16 12 9 12 14 8 3 2 3 8 11 14 13 19 25 26 28 27 26 26 28 28 31
7 7 6 6 7 6 4 4 1 4 4 3 4 6 6 8 14 8 9 14 15 10 8 7 10 10 8 7 2 2 7 11 15 18 19 20 27 25 28 31 30 30 31 34
8 11 6 6 6 7 6 6 4 2 1 2 3 2 8 5 7 10 8 12 9 9 9 9 9 11 8 5 1 3 7 11 13 17 20 23 25 28 30 30 29 32 33 35
8 5 4 5 1 1 4 5 7 5 3 2 6 8 6 3 5 3 5 9 11 9 8 8 11 8 5 3 2 2 6 9 13 15 18 21 26 27 26 28 31 29 30 34
3 4 5 6 5 0 6 6 3 4 2 6 3 4 9 11 8 9 14 13 9 8 9 7 6 4 7 4 2 2 6 9 13 17 21 26 28 28 28 27 25 28 29 30
4 7 5 4 9 11 7 9 6 7 3 4 6 6 5 6 5 14 13 9 7 8 6 7 6 11 8 5 1 4 7 12 18 24 26 27 28 27 26 25 30 28 28 29
7 8 7 2 4 10 4 5 8 3 1 1 4 5 4 2 6 7 8 8 8 7 8 8 7 9 8 4 3 6 11 17 20 23 26 26 27 28 29 29 30 31 33 33
8 11 5 4 5 1 5 5 4 2 3 5 5 5 5 5 4 4 6 8 9 7 7 5 7 10 6 4 6 10 13 14 18 26 26 26 28 28 30 31 32 33 36 35
4 5 6 6 6 9 2 2 3 4 5 5 1 6 4 7 9 9 8 9 8 8 7 6 6 6 4 4 7 9 10 14 22 24 27 26 26 30 31 31 32 33 35 36
6 5 5 11 4 9 8 9 7 5 5 4 4 6 4 8 8 6 7 6 3 7 6 5 5 2 3 7 8 9 13 20 22 24 27 26 28 29 31 32 32 32 38 38
4 2 1 8 6 3 5 6 6 4 4 9 5 6 2 6 5 8 7 6 7 7 6 4 1 3 5 6 6 9 17 20 23 26 24 28 28 29 31 33 34 34 36 38
12 7 9 13 9 5 4 7 14 12 5 9 16 10 6 9 10 12 1 8 8 7 7 5 3 4 6 7 7 14 18 22 24 25 26 29 28 28 32 35 35 34 35 35
7 7 8 9 10 8 7 6 7 10 15 10 12 17 13 16 18 20 8 7 8 7 6 3 2 4 6 4 10 16 23 23 24 25 26 28 30 31 33 32 35 34 34 34
6 6 7 18 14 12 16 7 9 14 11 12 13 22 8 14 6 7 8 7 7 5 4 3 5 5 1 6 12 18 21 24 24 26 27 29 30 31 32 33 34 33 35 34
3 4 6 12 15 12 10 21 19 14 16 10 15 12 5 4 8 7 7 8 7 6 5 7 5 2 1 8 16 20 21 25 24 26 28 29 29 31 32 32 33 33 33 33
12 11 7 5 4 14 12 7 15 21 24 20 5 7 10 8 6 7 6 8 8 7 7 5 1 3 4 12 18 22 24 23 24 26 28 29 30 32 31 31 32 32 30 30
19 13 7 6 12 5 8 14 16 14 15 14 13 11 8 8 7 3 6 6 7 6 4 1 7 4 5 14 21 24 21 22 25 25 28 31 32 32 32 30 32 30 28 28
22 22 12 7 7 12 13 17 13 2 7 7 9 13 10 8 3 4 8 5 6 5 1 12 7 3 7 18 23 20 21 22 24 28 31 33 33 31 32 33 32 30 25 26
4 13 21 17 7 7 7 6 10 13 8 7 10 9 8 5 5 5 7 4 2 2 11 10 6 3 8 17 21 19 21 21 28 31 31 32 31 33 34 33 28 21 22 23
6 5 7 12 11 22 8 5 13 7 4 6 7 7 8 8 8 7 7 5 7 7 10 10 7 3 8 15 18 18 20 27 29 31 30 30 33 34 31 28 19 19 18 17
4 2 3 2 5 6 3 7 5 6 9 6 7 7 10 10 8 8 6 7 6 8 10 10 7 4 9 16 18 18 25 27 29 30 29 30 33 33 30 29 25 21 18 14
3 4 3 6 9 11 6 6 7 7 8 8 7 8 9 8 9 7 7 6 6 7 8 10 5 6 8 16 20 19 24 26 27 27 26 27 28 30 28 22 22 18 25 25
4 3 3 4 17 14 11 6 7 4 7 7 7 9 9 11 8 8 7 6 5 5 11 9 6 4 8 15 18 21 24 26 25 24 23 24 23 24 27 23 20 21 18 20
7 7 4 4 8 6 9 9 12 10 8 7 8 8 6 7 10 9 7 6 6 10 12 8 6 8 11 16 18 21 24 25 24 22 22 23 22 23 23 23 29 26 27 24
Wind_Direction
285 120 225 232 208 212 237 198 259 250 263 223 214 248 255 261 250 227 183 183 171 165 177 150 140 133 139 151 313 315 322 331 321 315 308 309 316 317 314 317 317 306 304 304
341 234 241 236 216 200 192 218 260 292 230 170 289 283 240 215 219 207 198 182 177 166 160 155 148 144 128 111 16 339 346 340 336 326 307 312 313 312 311 314 310 300 299 297
204 249 239 218 209 198 219 194 222 231 319 354 335 287 271 268 232 227 212 188 179 170 161 163 145 138 131 112 50 7 337 336 340 336 322 313 310 311 310 308 300 297 293 301
251 284 279 268 220 170 228 219 93 44 46 233 77 283 273 279 282 254 226 175 169 164 155 140 135 126 118 113 141 287 307 319 323 323 324 317 310 300 299 301 301 292 293 295
253 311 349 332 225 174 226 115 111 113 48 346 188 295 274 264 273 251 200 164 155 154 141 134 132 130 145 141 20 310 322 327 325 317 318 319 312 310 305 296 294 294 290 293
235 265 236 233 50 94 125 66 35 50 101 303 226 179 271 215 215 206 140 142 142 149 127 126 127 132 140 151 161 305 327 328 325 325 321 319 316 315 308 303 297 293 286 289
292 229 241 175 204 156 85 65 349 328 349 232 275 170 242 304 303 177 158 143 154 132 134 138 137 150 164 155 181 360 343 336 330 326 323 318 311 307 303 297 297 297 290 286
196 309 185 179 190 196 178 149 157 228 217 269 300 247 279 332 35 92 110 135 128 135 149 168 165 159 164 171 172 350 346 335 331 327 325 319 310 303 297 297 299 294 293 290
194 247 233 173 181 160 183 157 177 100 298 20 247 295 319 324 66 91 121 135 168 165 179 176 145 160 163 151 19 358 341 332 328 326 317 312 308 303 299 298 297 294 292 288
228 259 213 168 100 65 142 166 81 7 216 248 277 256 227 196 180 160 170 189 209 196 167 151 158 156 136 55 6 339 331 316 321 320 314 309 307 305 299 296 293 294 293 290
161 165 275 131 182 169 143 177 90 129 149 182 244 267 224 195 179 181 204 218 202 184 182 157 134 95 65 350 329 319 312 317 321 315 313 305 298 297 293 292 290 291 293 290
187 159 216 216 224 181 180 182 150 140 231 221 166 260 258 180 186 180 234 269 226 155 146 124 120 112 335 330 312 320 324 324 319 312 304 300 299 295 292 291 291 294 292 290
202 204 43 326 337 318 199 186 174 128 104 212 181 252 177 174 239 251 241 232 147 141 120 117 154 299 297 309 306 319 329 323 313 311 303 303 299 296 293 294 293 293 293 291
242 186 176 229 227 184 200 199 202 190 183 219 229 240 256 265 271 289 294 142 146 150 165 189 240 253 264 312 324 335 331 321 314 308 303 301 300 297 294 292 292 291 292 291
21 226 193 212 193 213 200 198 205 202 226 200 228 231 223 241 252 257 152 153 145 167 184 205 272 277 303 327 340 335 325 317 312 305 305 302 300 295 294 292 295 292 293 292
4 303 260 236 222 212 243 247 240 242 242 260 248 260 232 245 245 149 156 157 163 177 183 267 281 294 13 351 341 333 324 317 314 307 305 302 299 297 296 295 294 293 295 294
305 291 332 255 233 228 241 237 242 251 252 233 245 246 179 134 135 155 168 169 175 186 222 252 276 154 35 354 343 331 322 317 314 308 304 302 299 296 295 296 296 295 294 295
247 235 274 268 175 220 242 217 234 240 241 240 205 165 164 162 165 160 177 161 179 200 236 269 175 127 16 352 341 332 327 322 315 308 305 303 301 296 294 293 290 288 291 291
217 222 216 257 218 272 285 223 225 232 244 229 212 153 156 141 118 166 186 175 188 209 231 241 145 109 2 355 348 339 320 319 314 309 305 305 302 298 296 292 290 290 291 290
217 214 219 222 212 202 246 234 250 67 267 211 152 157 154 152 141 229 185 189 210 223 211 149 141 98 6 1 354 334 319 319 311 311 309 307 304 302 301 295 289 285 284 285
271 212 222 218 261 278 217 224 188 203 246 178 145 157 148 140 185 168 171 210 211 186 141 145 144 98 15 1 351 332 320 315 313 311 314 311 313 315 307 295 286 282 280 278
221 237 231 215 224 246 188 151 172 200 144 156 141 141 127 141 143 156 188 180 133 133 146 167 146 81 17 360 348 327 320 318 318 318 320 323 328 323 323 328 304 304 284 285
262 264 273 251 261 264 229 180 189 162 152 171 157 154 145 146 163 177 153 136 137 153 155 160 136 65 22 1 347 326 322 323 325 325 331 339 332 333 341 1 7 8 8 355
269 202 240 352 1 304 352 322 155 180 154 166 171 150 141 143 154 141 131 132 135 147 152 154 119 52 16 356 345 334 326 329 329 330 338 343 332 340 347 352 14 10 14 11
237 209 277 254 275 283 294 11 337 228 166 157 150 145 140 140 141 132 130 136 154 139 142 145 111 68 32 355 344 343 334 338 335 334 347 347 341 347 344 349 355 1 8 7
203 214 216 270 282 301 308 332 337 290 184 177 140 127 137 126 127 128 130 146 125 118 142 127 95 51 27 358 344 345 344 347 340 341 354 345 342 347 349 351 347 357 359 3
Height
782 798 807 794 793 788 784 788 795 787 773 777 787 786 780 771 766 765 769 774 772 771 770 771 774 777 781 784 785 787 787 788 787 785 783 780 778 777 775 774 774 773 773 772
795 803 782 778 780 783 781 788 794 784 773 776 781 781 772 766 764 760 763 768 770 770 771 770 772 775 778 781 783 784 785 785 784 783 782 779 776 774 773 771 768 767 767 766
800 784 771 774 776 780 781 788 790 792 779 776 781 778 767 755 751 750 753 754 759 762 766 768 770 773 777 779 781 782 783 782 782 781 779 777 773 770 767 765 762 760 760 758
784 770 772 776 776 775 789 772 778 785 796 809 787 816 780 762 754 750 749 752 754 762 763 765 768 771 774 776 778 780 781 779 778 777 776 774 770 765 762 759 756 753 752 750
789 779 777 778 771 765 780 771 779 782 796 801 799 815 787 764 762 753 748 749 755 758 761 764 766 769 772 774 776 778 777 776 774 773 772 769 766 763 758 754 749 746 744 742
780 766 769 768 762 762 766 779 788 798 808 833 797 804 790 766 748 743 747 750 755 759 761 762 764 766 769 773 774 775 774 772 771 769 768 765 762 757 753 750 744 740 735 731
776 770 758 755 769 765 778 803 842 825 829 825 785 796 777 748 739 735 744 752 755 757 760 761 762 766 768 769 771 771 770 768 767 765 763 761 757 753 748 744 740 734 728 723
790 794 761 751 762 773 782 794 832 826 834 810 786 786 764 751 744 738 745 752 753 757 758 760 761 762 764 767 768 767 765 764 762 759 755 754 751 747 742 738 734 728 722 716
788 780 747 744 747 755 774 791 784 803 805 816 797 771 758 751 751 750 752 753 755 755 757 756 758 761 764 764 763 762 760 759 758 755 752 748 744 740 735 730 726 719 714 709
760 775 748 744 744 750 762 766 799 817 809 817 797 782 781 762 758 754 754 755 753 753 755 756 758 760 759 758 758 757 757 757 754 752 747 742 737 733 728 722 715 710 705 702
754 770 762 747 758 766 770 777 782 795 808 816 823 790 756 755 754 755 753 750 752 754 754 755 755 755 755 756 756 756 754 752 749 746 741 736 731 725 719 713 707 702 697 692
750 772 780 757 743 739 750 762 774 806 799 804 806 794 748 748 750 748 747 744 745 750 753 753 754 754 754 753 753 752 749 746 744 742 737 730 724 718 711 704 698 693 688 683
748 770 798 777 765 750 752 753 758 776 787 785 802 780 745 746 747 745 746 744 747 748 751 753 753 752 751 751 749 748 745 744 741 736 730 724 716 711 704 696 690 684 679 672
739 761 762 763 755 751 754 745 744 757 790 768 759 758 751 743 742 737 738 746 746 750 751 752 751 749 748 746 745 743 741 739 734 730 723 717 710 704 697 689 682 676 671 665
767 754 752 744 735 739 740 740 742 753 746 763 745 748 745 738 733 728 740 742 745 747 747 746 745 744 743 743 742 740 737 734 729 724 718 711 704 697 690 682 675 668 663 656
771 765 743 731 729 729 734 734 737 735 735 734 736 729 726 722 725 734 736 739 743 744 743 742 741 741 740 740 739 738 734 729 725 719 711 705 698 691 683 675 668 661 654 649
774 775 768 743 727 730 743 728 725 726 722 724 733 723 720 728 729 734 736 738 740 741 741 741 739 737 738 738 737 733 729 725 720 713 706 699 692 684 676 668 661 654 646 641
766 775 779 763 739 743 714 712 712 714 711 709 713 714 719 723 725 729 733 736 738 738 737 735 735 735 736 736 735 730 724 720 715 709 701 692 685 676 667 660 652 645 639 633
755 760 766 749 734 718 714 706 711 715 712 700 702 710 716 721 727 731 730 731 732 731 730 730 732 734 735 734 730 724 721 717 711 704 695 685 678 667 659 651 643 637 632 625
730 739 745 746 722 719 689 696 693 699 723 695 696 707 714 719 737 732 727 726 726 726 727 729 731 734 733 730 726 724 719 713 707 698 689 680 671 660 650 642 634 628 624 618
738 726 729 727 723 708 684 681 681 718 708 691 692 700 704 716 719 716 720 721 722 723 725 729 730 732 731 728 725 722 716 710 702 692 684 674 663 653 642 632 625 620 616 612
740 717 710 710 714 709 672 680 693 686 686 688 691 694 701 705 711 715 717 718 721 724 726 729 729 730 728 726 723 719 713 706 697 688 679 670 659 647 637 625 618 614 609 607
733 730 729 720 701 687 670 668 671 675 680 687 690 689 694 703 708 711 714 717 720 723 725 727 728 728 726 724 721 716 709 702 694 685 677 668 658 647 637 627 617 616 610 608
733 736 729 721 695 692 679 670 668 671 675 681 683 684 689 697 703 707 712 717 720 721 723 725 726 724 724 723 718 714 706 700 693 684 677 669 659 649 640 632 628 623 615 608
727 730 726 716 711 689 676 679 682 669 672 676 680 681 687 693 700 706 712 716 718 719 721 723 723 724 722 721 716 711 705 698 691 684 677 670 662 652 642 637 634 628 625 618
717 714 716 708 697 698 687 683 678 679 671 672 676 683 687 690 698 704 710 713 715 717 720 722 723 724 722 719 714 710 704 698 692 685 678 673 664 655 647 641 632 629 625 613